EW5295 Weather Reports


time (UTC)temp
F
wind
direction
speed
knots
gust
knots
rain 1hr
in
rain 24hr
in
rain mn
in
humidity
%
barometer
mb
20260902021555 63 149 0.0 0.0 0.00 0.00 0.00 73 1010.3
20260902020053 63 126 0.0 0.0 0.00 0.00 0.00 74 1010.2
20260902014551 63 126 0.0 0.9 0.00 0.00 0.00 76 1010.2
20260902013050 63 126 0.0 0.9 0.00 0.00 0.00 74 1010.1
20260902011610 64 157 0.0 0.0 0.00 0.00 0.00 72 1010.0
20260902010048 64 162 0.0 0.9 0.00 0.00 0.00 72 1010.1
20260902004538 65 141 0.0 0.9 0.00 0.00 0.00 71 1010.0
20260902003038 65 187 0.0 0.9 0.00 0.00 0.00 70 1009.9
20260902001537 66 128 0.0 1.7 0.00 0.00 0.00 68 1009.8
20260902000040 65 148 0.0 1.7 0.00 0.00 0.00 69 1009.8
20260901234534 65 158 0.0 1.7 0.00 0.00 0.00 69 1009.9
20260901233033 65 169 0.0 0.9 0.00 0.00 0.00 70 1010.0
20260901231539 65 150 0.0 2.6 0.00 0.00 0.00 71 1009.9
20260901230030 65 126 0.0 0.0 0.00 0.00 0.00 72 1010.1
20260901224524 65 165 0.0 0.9 0.00 0.00 0.00 72 1010.1
20260901223016 65 143 0.0 1.7 0.00 0.00 0.00 71 1010.2
20260901221547 65 143 0.0 1.7 0.00 0.00 0.00 72 1010.1
20260901220012 64 158 0.0 0.0 0.00 0.00 0.00 74 1010.1
20260901214510 64 160 0.0 0.9 0.00 0.00 0.00 74 1010.0
20260901213018 63 171 0.0 0.0 0.00 0.00 0.00 74 1010.1
20260901211512 63 172 0.0 0.0 0.00 0.00 0.00 75 1010.1
20260901210006 64 173 0.0 0.0 0.00 0.00 0.00 76 1010.1
20260901204601 64 173 0.0 0.0 0.00 0.00 0.00 76 1010.2
20260901203048 64 196 0.0 0.9 0.00 0.00 0.00 76 1010.3
20260901201535 64 149 0.0 0.0 0.00 0.00 0.00 76 1010.2
20260901200055 64 135 0.0 0.0 0.00 0.00 0.00 76 1010.3
20260901194546 63 192 0.0 0.0 0.00 0.00 0.00 79 1010.3
20260901193042 63 150 0.0 0.0 0.00 0.00 0.00 80 1010.5
20260901191602 62 151 0.0 0.0 0.00 0.00 0.00 82 1010.5
20260901190033 62 168 0.0 0.0 0.00 0.00 0.00 83 1010.7
20260901184534 61 169 0.0 0.0 0.00 0.00 0.00 85 1010.8
20260901183044 61 181 0.0 0.9 0.00 0.00 0.00 86 1010.9
20260901181523 61 161 0.0 0.0 0.00 0.00 0.00 87 1010.9
20260901180019 60 160 0.0 0.0 0.00 0.00 0.00 89 1010.9
20260901174519 60 161 0.0 0.0 0.00 0.00 0.00 90 1010.9
20260901173018 59 161 0.0 0.0 0.00 0.00 0.00 92 1010.9
20260901171518 58 162 0.0 0.0 0.00 0.00 0.00 93 1010.8
20260901170016 58 167 0.0 0.0 0.00 0.00 0.00 93 1010.7
20260901164516 58 167 0.0 0.0 0.00 0.00 0.00 94 1010.7
20260901163015 57 167 0.0 0.0 0.00 0.00 0.00 94 1010.8
20260901161525 57 167 0.0 0.0 0.00 0.00 0.00 94 1010.8
20260901160109 57 167 0.0 0.0 0.00 0.00 0.00 94 1010.7
20260901154554 56 167 0.0 0.0 0.00 0.00 0.00 93 1010.8
20260901153050 56 167 0.0 0.0 0.00 0.00 0.00 93 1010.8
20260901151542 0 0.0 0.0 0.00 0.00 0.00 1010.7
20260901150039 0 0.0 0.0 0.00 0.00 0.00 1010.5
20260901144538 0 0.0 0.0 0.00 0.00 0.00 1010.3
20260901143026 0 0.0 0.0 0.00 0.00 0.00 1010.4
20260901141524 0 0.0 0.0 0.00 0.00 0.00 1010.2
20260901140015 0 0.0 0.0 0.00 0.00 0.00 1010.2
20260901134511 0 0.0 0.0 0.00 0.00 0.00 1010.1
20260901133056 0 0.0 0.0 0.00 0.00 0.00 1010.0
20260901131550 0 0.0 0.0 0.00 0.00 0.00 1010.0
20260901130046 0 0.0 0.0 0.00 0.00 0.00 1009.9
20260901124542 0 0.0 0.0 0.00 0.00 0.00 1009.8
20260901123038 0 0.0 0.0 0.00 0.00 0.00 1009.8
20260901121533 0 0.0 0.0 0.00 0.00 0.00 1009.8
20260901120032 56 170 0.0 0.0 0.00 0.00 0.00 91 1009.8
20260901114533 55 146 0.0 0.0 0.00 0.00 0.00 92 1009.8
20260901113020 54 146 0.0 0.0 0.00 0.00 0.00 93 1009.8
20260901111519 54 146 0.0 0.0 0.00 0.00 0.00 92 1009.7
20260901110016 55 146 0.0 0.0 0.00 0.00 0.00 91 1009.5
20260901104516 55 146 0.0 0.0 0.00 0.00 0.00 91 1009.5
20260901103013 55 146 0.0 0.9 0.00 0.00 0.00 91 1009.4
20260901101526 55 161 0.0 0.0 0.00 0.00 0.00 90 1009.4
20260901100010 55 162 0.0 0.9 0.00 0.00 0.00 90 1009.4
20260901094509 55 156 0.0 0.0 0.00 0.00 0.00 89 1009.3
20260901093049 56 156 0.0 0.0 0.00 0.00 0.00 89 1009.2
20260901091555 56 156 0.0 0.0 0.00 0.00 0.00 88 1009.0
20260901090028 56 156 0.0 0.0 0.00 0.00 0.00 88 1008.8
20260901084536 57 156 0.0 0.0 0.00 0.00 0.00 88 1008.9
20260901083014 57 157 0.0 0.0 0.00 0.00 0.00 87 1008.9
20260901081513 57 157 0.0 0.0 0.00 0.00 0.00 87 1008.9
20260901080016 58 158 0.0 0.0 0.00 0.00 0.00 86 1008.9
20260901074506 58 148 0.0 0.9 0.00 0.00 0.00 84 1008.9
20260901073002 59 163 0.0 0.0 0.00 0.00 0.00 82 1008.8
20260901071559 60 163 0.0 0.0 0.00 0.00 0.00 81 1008.7
20260901070114 61 163 0.0 0.0 0.00 0.00 0.00 78 1008.5
20260901064604 62 163 0.0 0.0 0.00 0.00 0.00 76 1008.3
20260901063051 63 163 0.0 0.0 0.00 0.00 0.00 74 1008.1
20260901061529 64 161 0.0 0.0 0.00 0.00 0.00 73 1007.9
20260901060025 65 161 0.0 0.0 0.00 0.00 0.00 72 1007.9
20260901054522 66 161 0.0 0.0 0.00 0.00 0.00 70 1007.7
20260901053023 67 165 0.0 0.0 0.00 0.00 0.00 68 1007.4
20260901051518 68 146 0.0 1.7 0.00 0.00 0.00 68 1007.5
20260901050018 68 178 0.0 0.9 0.00 0.00 0.00 67 1007.5
20260901044515 69 130 0.0 0.9 0.00 0.00 0.00 66 1007.5
20260901043025 69 117 0.0 0.9 0.00 0.00 0.00 66 1007.3
20260901041515 70 191 0.0 0.0 0.00 0.00 0.00 65 1007.0
20260901040012 71 150 0.0 0.0 0.00 0.00 0.00 60 1006.9
20260901034509 72 150 0.0 0.0 0.00 0.00 0.00 54 1006.7
20260901033008 71 150 0.0 0.0 0.00 0.00 0.00 56 1006.4
20260901031506 71 150 0.0 0.0 0.00 0.00 0.00 55 1006.1
20260901030043 72 150 0.0 0.0 0.00 0.00 0.00 53 1006.0
20260901024548 73 150 0.0 0.0 0.00 0.00 0.00 52 1006.1
20260901023027 75 150 0.0 0.0 0.00 0.00 0.00 51 1006.1